TOURFACTS.DK  
Stats and Facts from Tour de France.

Tour de France 2018 starts in 318 days
  Riders   Stages   Teams   Summits   Yearly  


 
Search by year

 2017 - St. 21:  14824 starters.
  5131 different riders.
  634 teams.
  2232 stages.
  454 restdays.
  439589.60 km.
  5653 abandonnees.


Top 3
Christopher Froome86:20:55
Rigoberto Uran86:21:49
Romain Bardet86:23:15
Warren Barguil169 pt.
Primoz Roglic80 pt.
Thomas De Gendt64 pt.
Michael Matthews359 pt.
André Greipel234 pt.
Edvald Boasson Hagen220 pt.
Simon Yates86:27:09
Louis Meintjes86:29:15
Emanuel Buchmann86:54:16
Facts from Tour de France 2015
  |   Stages.  |   Stage winners.  |   Days in yellow  |   Average speed.  |   Route.  |   Teams.  |   All riders.  |   Rookies.  |   Withdrawls.  |  

  |   GC.  |   Polka  |   Green  |   White  |   Summits. (In tour)  |   Summits. (Points)  |   Miscellaneous.  |  

Stage 5 on 08 - 07 - 2015
         Owning:    Tony Martin      Joaquim Rodriguez      André Greipel      Peter Sagan  

Pick a stage:  1 2 3 4 5 6 7 8 9 10 11 12 13 14 15 16 17 18 19 20 21
  ArrasAmiens Métropole | Dist: 189.50 km.

Average speed for all riders in stage:  39,875 km./hr.
    Place:Name:Team:Time:Km/h:
GERAndré GreipelBELLotto Soudal04:39:00  +  00:00:00=40,753 
SVKPeter SaganRUSTinkoff Saxo04:39:00  +  00:00:00=40,753 
IOMMark CavendishBELEtixx - Quick Step04:39:00  +  00:00:00=40,753 
4 NORAlexander KristoffRUSTeam Katusha04:39:00  +  00:00:00=40,753 
5 NOREdvald Boasson HagenZAFMTN - Qhubeka P/B Samsung04:39:00  +  00:00:00=40,753 
6 GERJohn DegenkolbDEUTeam Giant Alpecin04:39:00  +  00:00:00=40,753 
7 FRAArnaud DémareFRAFDJ04:39:00  +  00:00:00=40,753 
8 FRABryan CoquardFRATeam Europcar04:39:00  +  00:00:00=40,753 
9 ITADavide CimolaiITALampre-Merida04:39:00  +  00:00:00=40,753 
10 BELGreg Van AvermaetUSABMC Racing Team04:39:00  +  00:00:00=40,753 
11 FRAGeoffrey SoupeFRACofidis – Solutions Crédits04:39:00  +  00:00:00=40,753 
12 AUSZakkari DempsterDEUBora-Argon 1804:39:00  +  00:00:00=40,753 
13 RSAReinardt Janse Van RensburgZAFMTN - Qhubeka P/B Samsung04:39:00  +  00:00:00=40,753 
14 COLJarlinson Pantano GomezCHEIAM Cycling04:39:00  +  00:00:00=40,753 
15 BELSep VanmarckeNLDTeam Lotto NL - Jumbo04:39:00  +  00:00:00=40,753 
16 BELJan BakelantsFRAAg2r La Mondiale04:39:00  +  00:00:00=40,753 
17 URSTanel KangertKAZAstana Pro Team04:39:00  +  00:00:00=40,753 
18 AUTMatthias BrändleCHEIAM Cycling04:39:00  +  00:00:00=40,753 
19 ITAVincenzo NibaliKAZAstana Pro Team04:39:00  +  00:00:00=40,753 
20 ITAMichele ScarponiKAZAstana Pro Team04:39:00  +  00:00:00=40,753 
21 FRASylvain ChavanelCHEIAM Cycling04:39:00  +  00:00:00=40,753 
22 GERTony MartinBELEtixx - Quick Step04:39:00  +  00:00:00=40,753 
23 GERPaul VossDEUBora-Argon 1804:39:00  +  00:00:00=40,753 
24 WALGeraint ThomasGBRSky Procycling04:39:00  +  00:00:00=40,753 
25 FRAWarren BarguilDEUTeam Giant Alpecin04:39:00  +  00:00:00=40,753 
26 SLOKristjan KorenUSATeam Cannondale - Garmin04:39:00  +  00:00:00=40,753 
27 ESPAlejandro ValverdeESPMovistar Team04:39:00  +  00:00:00=40,753 
28 KENChristopher FroomeGBRSky Procycling04:39:00  +  00:00:00=40,753 
29 NEDRobert GesinkNLDTeam Lotto NL - Jumbo04:39:00  +  00:00:00=40,753 
30 SUIMichael SchärUSABMC Racing Team04:39:00  +  00:00:00=40,753 
31 ESPSamuel SanchezUSABMC Racing Team04:39:00  +  00:00:00=40,753 
32 USATejay Van GarderenUSABMC Racing Team04:39:00  +  00:00:00=40,753 
33 ARGEduardo SepulvedaFRABretagne - Séché Environnement04:39:00  +  00:00:00=40,753 
34 COLNairo QuintanaESPMovistar Team04:39:00  +  00:00:00=40,753 
35 FRATony GallopinBELLotto Soudal04:39:00  +  00:00:00=40,753 
36 PORRui CostaITALampre-Merida04:39:00  +  00:00:00=40,753 
37 USAAndrew TalanskyUSATeam Cannondale - Garmin04:39:00  +  00:00:00=40,753 
38 AUSMark RenshawBELEtixx - Quick Step04:39:00  +  00:00:00=40,753 
39 FRARomain BardetFRAAg2r La Mondiale04:39:00  +  00:00:00=40,753 
40 ESPAlberto ContadorRUSTinkoff Saxo04:39:00  +  00:00:00=40,753 
41 FRAMickaël CherelFRAAg2r La Mondiale04:39:00  +  00:00:00=40,753 
42 FRAJean-Christophe PeraudFRAAg2r La Mondiale04:39:00  +  00:00:00=40,753 
43 ESPJoaquim RodriguezRUSTeam Katusha04:39:00  +  00:00:00=40,753 
44 CZERoman KreuzigerRUSTinkoff Saxo04:39:00  +  00:00:00=40,753 
45 GERDominik NerzDEUBora-Argon 1804:39:00  +  00:00:00=40,753 
46 ERIDaniel TeklehaimanotZAFMTN - Qhubeka P/B Samsung04:39:00  +  00:00:00=40,753 
47 ESPMarkel IrizarUSATrek Factory Racing04:39:00  +  00:00:00=40,753 
48 COLRigoberto UranBELEtixx - Quick Step04:39:00  +  00:00:00=40,753 
49 SUIJakob FuglsangKAZAstana Pro Team04:39:00  +  00:00:00=40,753 
50 ESPAlberto LosadaRUSTeam Katusha04:39:00  +  00:00:00=40,753 
51 SUIMathias FrankCHEIAM Cycling04:39:00  +  00:00:00=40,753 
52 NEDBauke MollemaUSATrek Factory Racing04:39:00  +  00:00:00=40,753 
53 RSAJacques Janse Van RensburgZAFMTN - Qhubeka P/B Samsung04:39:00  +  00:00:00=40,753 
54 FRAChristophe LaporteFRACofidis – Solutions Crédits04:39:00  +  00:00:00=40,753 
55 SUIGregory RastUSATrek Factory Racing04:39:00  +  00:00:00=40,753 
56 CZEZdenek StybarBELEtixx - Quick Step04:39:00  +  00:00:00=40,753 
57 FRAThibaut PinotFRAFDJ04:39:00  +  00:00:00=40,753 
58 FRACyril GautierFRATeam Europcar04:39:00  +  00:00:00=40,753 
59 FRAAlexis VuillermozFRAAg2r La Mondiale04:39:00  +  00:00:00=40,753 
60 ENGDaniel MartinUSATeam Cannondale - Garmin04:39:00  +  00:00:00=40,753 
61 FRABenoit VaugrenardFRAFDJ04:39:00  +  00:00:00=40,753 
62 NEDJos Van EmdenNLDTeam Lotto NL - Jumbo04:39:00  +  00:00:00=40,753 
63 DENLars BakBELLotto Soudal04:39:00  +  00:00:00=40,753 
64 FRAPierre RollandFRATeam Europcar04:39:00  +  00:00:00=40,753 
65 FRAMatthieu LadagnousFRAFDJ04:39:00  +  00:00:00=40,753 
66 SUISteve MorabitoFRAFDJ04:39:00  +  00:00:00=40,753 
67 UKRAndriy GrivkoKAZAstana Pro Team04:39:10  +  00:00:10=40,728 
68 NEDKoen De KortDEUTeam Giant Alpecin04:39:12  +  00:00:12=40,723 
69 NEDBram TankinkNLDTeam Lotto NL - Jumbo04:39:12  +  00:00:12=40,723 
70 ESPJonathan CastroviejoESPMovistar Team04:39:12  +  00:00:12=40,723 
71 LUXLaurent DidierUSATrek Factory Racing04:39:12  +  00:00:12=40,723 
72 ESPGorka Izaguirre InsaustiESPMovistar Team04:39:12  +  00:00:12=40,723 
73 FRADamien GaudinFRAAg2r La Mondiale04:39:12  +  00:00:12=40,723 
74 FRAYohann GèneFRATeam Europcar04:39:12  +  00:00:12=40,723 
75 FRAChristophe RiblonFRAAg2r La Mondiale04:39:12  +  00:00:12=40,723 
76 DENMichael ValgrenRUSTinkoff Saxo04:39:12  +  00:00:12=40,723 
77 BELTim WellensBELLotto Soudal04:39:12  +  00:00:12=40,723 
78 ENGAdam YatesAUSOrica - GreenEDGE04:39:12  +  00:00:12=40,723 
79 FRARomain SicardFRATeam Europcar04:39:12  +  00:00:12=40,723 
80 NEDTom LeezerNLDTeam Lotto NL - Jumbo04:39:12  +  00:00:12=40,723 
81 AUSNathan HaasUSATeam Cannondale - Garmin04:39:17  +  00:00:17=40,711 
82 GERMarcel SiebergBELLotto Soudal04:39:18  +  00:00:18=40,709 
83 URSRein TaaramäeKAZAstana Pro Team04:39:20  +  00:00:20=40,704 
84 NEDRoy CurversDEUTeam Giant Alpecin04:39:23  +  00:00:23=40,697 
85 ITADaniel OssUSABMC Racing Team04:39:23  +  00:00:23=40,697 
86 FRAFlorian SénéchalFRACofidis – Solutions Crédits04:39:23  +  00:00:23=40,697 
87 ITAAdriano MaloriESPMovistar Team04:39:43  +  00:00:43=40,648 
88 ITADaniele BennatiRUSTinkoff Saxo04:39:43  +  00:00:43=40,648 
89 ENGIan StannardGBRSky Procycling04:39:43  +  00:00:43=40,648 
90 POLMichal GolasBELEtixx - Quick Step04:39:43  +  00:00:43=40,648 
91 NEDLieuwe WestraKAZAstana Pro Team04:39:43  +  00:00:43=40,648 
92 NEDRamon SinkeldamDEUTeam Giant Alpecin04:39:56  +  00:00:56=40,617 
93 ENGSimon YatesAUSOrica - GreenEDGE04:39:56  +  00:00:56=40,617 
94 URSRamunas NavardauskasUSATeam Cannondale - Garmin04:40:05  +  00:01:05=40,595 
95 ITADamiano CarusoUSABMC Racing Team04:40:18  +  00:01:18=40,564 
96 FRANicolas RocheGBRSky Procycling04:40:18  +  00:01:18=40,564 
97 AUSMichael RogersRUSTinkoff Saxo04:40:18  +  00:01:18=40,564 
98 SUIDanilo WyssUSABMC Racing Team04:40:18  +  00:01:18=40,564 
99 USATyler FarrarZAFMTN - Qhubeka P/B Samsung04:40:24  +  00:01:24=40,549 
100 ITAManuel QuinziatoUSABMC Racing Team04:40:24  +  00:01:24=40,549 
101 NEDDylan Van BaarleUSATeam Cannondale - Garmin04:41:17  +  00:02:17=40,422 
102 WALLuke RoweGBRSky Procycling04:41:28  +  00:02:28=40,396 
103 GERSimon GeschkeDEUTeam Giant Alpecin04:41:28  +  00:02:28=40,396 
104 NEDAlbert TimmerDEUTeam Giant Alpecin04:41:28  +  00:02:28=40,396 
105 POLMichal KwiatkowskiBELEtixx - Quick Step04:41:46  +  00:02:46=40,353 
106 BELJulien VermoteBELEtixx - Quick Step04:41:46  +  00:02:46=40,353 
107 AUSRohan DennisUSABMC Racing Team04:42:07  +  00:03:07=40,302 
108 ITAMatteo TrentinBELEtixx - Quick Step04:42:07  +  00:03:07=40,302 
109 FRAArmindo FonsecaFRABretagne - Séché Environnement04:47:29  +  00:08:29=39,550 
110 ITAFilippo PozzatoITALampre-Merida04:49:14  +  00:10:14=39,311 
111 FRASébastien ChavanelFRAFDJ04:49:15  +  00:10:15=39,309 
112 CZELeopold KönigGBRSky Procycling04:49:20  +  00:10:20=39,297 
113 NEDSteven KruijswijkNLDTeam Lotto NL - Jumbo04:51:23  +  00:12:23=39,021 
114 AUTMarco HallerRUSTeam Katusha04:51:23  +  00:12:23=39,021 
115 AUTGeorg PreidlerDEUTeam Giant Alpecin04:51:23  +  00:12:23=39,021 
116 NEDWout PoelsGBRSky Procycling04:51:23  +  00:12:23=39,021 
117 PORTiago PintoRUSTeam Katusha04:51:23  +  00:12:23=39,021 
118 ITAIvan BassoRUSTinkoff Saxo04:51:23  +  00:12:23=39,021 
119 ITAJacopo GuarnieriRUSTeam Katusha04:51:23  +  00:12:23=39,021 
120 ITALuca PaoliniRUSTeam Katusha04:51:23  +  00:12:23=39,021 
121 ITAMatteo TosattoRUSTinkoff Saxo04:51:23  +  00:12:23=39,021 
122 FRABrice FeilluFRABretagne - Séché Environnement04:53:15  +  00:14:15=38,772 
123 BELThomas De GendtBELLotto Soudal04:53:15  +  00:14:15=38,772 
124 FRAAnthony DelaplaceFRABretagne - Séché Environnement04:53:15  +  00:14:15=38,772 
125 NEDStef ClementCHEIAM Cycling04:53:15  +  00:14:15=38,772 
126 FRAPierre-Luc PérichonFRABretagne - Séché Environnement04:53:15  +  00:14:15=38,772 
127 PORNelson OliveiraITALampre-Merida04:53:15  +  00:14:15=38,772 
128 BELSerge PauwelsZAFMTN - Qhubeka P/B Samsung04:53:15  +  00:14:15=38,772 
129 NEDWilco KeldermanNLDTeam Lotto NL - Jumbo04:53:15  +  00:14:15=38,772 
130 LUXBen GastauerFRAAg2r La Mondiale04:53:15  +  00:14:15=38,772 
131 FRAAlexandre GeniezFRAFDJ04:53:15  +  00:14:15=38,772 
132 BELStijn DevolderUSATrek Factory Racing04:53:15  +  00:14:15=38,772 
133 BELJens DebusschereBELLotto Soudal04:53:15  +  00:14:15=38,772 
134 ESPHaimar ZubeldiaUSATrek Factory Racing04:53:15  +  00:14:15=38,772 
135 NZLGregory HendersonBELLotto Soudal04:53:15  +  00:14:15=38,772 
136 KAZDmitriy GruzdevKAZAstana Pro Team04:53:15  +  00:14:15=38,772 
137 ESPLuis Angel MateFRACofidis – Solutions Crédits04:53:15  +  00:14:15=38,772 
138 AUSAdam HansenBELLotto Soudal04:53:15  +  00:14:15=38,772 
139 AUSRichie PorteGBRSky Procycling04:53:15  +  00:14:15=38,772 
140 COLJulián ArredondoUSATrek Factory Racing04:53:15  +  00:14:15=38,772 
141 IOMPeter KennaughGBRSky Procycling04:53:15  +  00:14:15=38,772 
142 GERPaul MartensNLDTeam Lotto NL - Jumbo04:53:15  +  00:14:15=38,772 
143 LUXBob JungelsUSATrek Factory Racing04:53:15  +  00:14:15=38,772 
144 FRAPerrig QuemeneurFRATeam Europcar04:53:15  +  00:14:15=38,772 
145 CZEJan BártaDEUBora-Argon 1804:53:15  +  00:14:15=38,772 
146 FRABryan NauleauFRATeam Europcar04:53:15  +  00:14:15=38,772 
147 FRAThomas VoecklerFRATeam Europcar04:53:15  +  00:14:15=38,772 
148 FRAPierrick FédrigoFRABretagne - Séché Environnement04:53:15  +  00:14:15=38,772 
149 GEREmanuel BuchmannDEUBora-Argon 1804:53:15  +  00:14:15=38,772 
150 BELSam BennettDEUBora-Argon 1804:53:15  +  00:14:15=38,772 
151 ESPImanol ErvitiESPMovistar Team04:53:15  +  00:14:15=38,772 
152 ITAGiampaolo CarusoRUSTeam Katusha04:53:15  +  00:14:15=38,772 
153 SUIMarcel WyssCHEIAM Cycling04:53:15  +  00:14:15=38,772 
154 SUIMartin ElmigerCHEIAM Cycling04:53:15  +  00:14:15=38,772 
155 SUIReto HollensteinCHEIAM Cycling04:53:15  +  00:14:15=38,772 
156 HRVKristijan DurasekITALampre-Merida04:53:15  +  00:14:15=38,772 
157 POLBartosz HuzarskiDEUBora-Argon 1804:53:15  +  00:14:15=38,772 
158 ESPDaniel NavarroFRACofidis – Solutions Crédits04:53:15  +  00:14:15=38,772 
159 NEDLars BoomKAZAstana Pro Team04:53:15  +  00:14:15=38,772 
160 FRAJérémy RoyFRAFDJ04:53:15  +  00:14:15=38,772 
161 RSALouis MeintjesZAFMTN - Qhubeka P/B Samsung04:53:15  +  00:14:15=38,772 
162 BELJohan VansummerenFRAAg2r La Mondiale04:53:15  +  00:14:15=38,772 
163 FRANicolas EdetFRACofidis – Solutions Crédits04:53:15  +  00:14:15=38,772 
164 BELKenneth VanbilsenFRACofidis – Solutions Crédits04:53:15  +  00:14:15=38,772 
165 POLRafal MajkaRUSTinkoff Saxo04:53:15  +  00:14:15=38,772 
166 AUSLuke DurbridgeAUSOrica - GreenEDGE04:53:15  +  00:14:15=38,772 
167 FRAArnaud GérardFRABretagne - Séché Environnement04:53:15  +  00:14:15=38,772 
168 NEDPieter WeeningAUSOrica - GreenEDGE04:53:15  +  00:14:15=38,772 
169 SUIMichael AlbasiniAUSOrica - GreenEDGE04:53:15  +  00:14:15=38,772 
170 FRAJulien SimonFRACofidis – Solutions Crédits04:53:15  +  00:14:15=38,772 
171 CANSvein TuftAUSOrica - GreenEDGE04:53:15  +  00:14:15=38,772 
172 ESPRafael Valls FerriITALampre-Merida04:53:15  +  00:14:15=38,772 
173 ITAMatteo BonoITALampre-Merida04:53:15  +  00:14:15=38,772 
174 COLWinner AnaconaESPMovistar Team04:53:15  +  00:14:15=38,772 
175 ESPRubén PlazaITALampre-Merida04:53:15  +  00:14:15=38,772 
176 AUSMichael MatthewsAUSOrica - GreenEDGE04:53:15  +  00:14:15=38,772 
177 ESPJosé Herrada LópezESPMovistar Team04:53:15  +  00:14:15=38,772 
178 COLJosé SerpaITALampre-Merida04:53:15  +  00:14:15=38,772 
179 ERIMerhawi GhebremedhinZAFMTN - Qhubeka P/B Samsung04:53:15  +  00:14:15=38,772 
180 PORJosé João PimentaDEUBora-Argon 1804:53:15  +  00:14:15=38,772 
181 NEDLaurens ten DamNLDTeam Lotto NL - Jumbo04:53:15  +  00:14:15=38,772 
182 FRAFrédéric BrunFRABretagne - Séché Environnement04:53:15  +  00:14:15=38,772 
183 FRAJérôme CoppelCHEIAM Cycling04:53:15  +  00:14:15=38,772 
184 FRAFlorian VachonFRABretagne - Séché Environnement04:53:15  +  00:14:15=38,772 
185 FRAAngelo TulikFRATeam Europcar04:53:15  +  00:14:15=38,772 
186 ENGStephen CummingsZAFMTN - Qhubeka P/B Samsung04:53:15  +  00:14:15=38,772 
187 ENGAlex DowsettESPMovistar Team04:53:15  +  00:14:15=38,772 
188 CANRyder HesjedalUSATeam Cannondale - Garmin04:53:15  +  00:14:15=38,772 
189 NEDSebastian LangeveldUSATeam Cannondale - Garmin04:53:15  +  00:14:15=38,772 

Withdrawls: 2
 
Rider
Team
Reason
162  NZLJack BauerUSATeam Cannondale - GarminDid not finish
171  FRANacer BouhanniFRACofidis – Solutions CréditsDid not finish

Todays birthdays.

1899  Emile Lambiel
1908  Auguste Monciero
1920  Georges Guillier
1927  Danilo Barozzi
1928  Settimo Sabbadini
1936  Jean Simon
1945  José Uribezubia
1965  José Farfán
1970  Erik Dekker